Regional Weather Roundup
Issued by NWS

Home | Current Version | Previous Version | Graphics & Text | Print | Product List | Glossary On
Versions: 1 2 3 4 5 6 7 8 9 10 11 12 13 14 15 16 17 18 19 20 21 22 23 24 25 26 27 28 29 30 31 32 33 34 35 36 37 38 39 40 41 42 43 44 45 46 47 48 49 50
000
ASUS43 KLSX 251307
RWRMO

WEATHER SUMMARY FOR MISSOURI
NATIONAL WEATHER SERVICE SPRINGFIELD MO
800 AM CDT FRI JUL 25 2014

NOTE: "FAIR" INDICATES FEW OR NO CLOUDS BELOW 12,000 FEET WITH NO
       SIGNIFICANT WEATHER AND/OR OBSTRUCTIONS TO VISIBILITY.
       CURRENT SKY AND/OR WEATHER CONDITIONS ARE NOT AVAILABLE FOR
       CHILLICOTHE AND FARMINGTON.

MOZ001>031-035>038-043-044-053-054-251400-
...NORTHERN AND WESTERN MISSOURI...

CITY           SKY/WX    TMP DP  RH WIND       PRES   REMARKS
KANSAS CTY INT PTSUNNY   74  68  81 S16       29.89F
KANSAS C DTWN  CLOUDY    74  66  76 S12       29.90F
LEE`S SUMMIT   PTSUNNY   71  64  78 S12G17    29.94F
ST JOSEPH      CLOUDY    73  67  81 S15       29.85F
CHILLICOTHE      N/A     70  59  68 S9        29.91F
KIRKSVILLE     TSTM      63  57  81 E14       30.03R

$$
MOZ066>068-077>081-088>096-101>105-251400-
...SOUTHWEST MISSOURI...

CITY           SKY/WX    TMP DP  RH WIND       PRES   REMARKS
SPRINGFIELD    MOSUNNY   70  62  76 S14       30.03R
JOPLIN         MOSUNNY   74  70  87 S13       29.98F

$$
MOZ032>034-039>042-045>050-055>058-069>072-251400-
...CENTRAL MISSOURI...

CITY           SKY/WX    TMP DP  RH WIND       PRES   REMARKS
COLUMBIA       CLOUDY    67  58  72 S13       30.01F
JEFFERSON CITY CLOUDY    68  57  68 SE6       30.02F
ROLLA          PTSUNNY   67  57  70 S16       30.04R
SEDALIA        CLOUDY    70  59  68 S12       29.98F
WHITEMAN AFB   MOSUNNY   70  53  55 S13       29.96S
OSAGE BEACH    MOSUNNY   66  55  68 SE8       30.03R

$$
MOZ051-052-059>065-251400-
...EAST CENTRAL MISSOURI...

CITY           SKY/WX    TMP DP  RH WIND       PRES   REMARKS
ST LOUIS INTL  CLOUDY    69  58  67 S3        30.09R
SPIRIT OF STL  CLOUDY    66  59  78 CALM      30.07R
ST CHARLES     CLOUDY    65  60  84 CALM      30.09R

$$
MOZ072>076-082>087-097>100-106>115-251400-
...SOUTH CENTRAL AND SOUTHEAST MISSOURI...

CITY           SKY/WX    TMP DP  RH WIND       PRES   REMARKS
CAPE GIRARDEAU PTSUNNY   65  63  93 CALM      30.07S
FARMINGTON     MOSUNNY   61  57  88 S3        30.10R
POPLAR BLUFF   MOSUNNY   67  61  81 CALM      30.07R
WEST PLAINS    MOSUNNY   68  59  73 S8        30.10R

$$


USA.gov is the U.S. government's official web portal to all federal, state and local government web resources and services.